sat.trackr.live / text

‹ back to catalog

KOREASAT 116

NORAD 45920 · 2020-048A

PAYLOAD ACTIVE UNKNOWN

§ Identity

Operator
Country
SKOR
Launch date
2020-07-20
Launch site
AFETR
Launch vehicle
Mass (kg)
RCS (m²)

Purposes: comms

External: N2YO · Heavens-Above · Gunter

§ Orbital elements

Epoch: 2026-09-13T01:19:38.739072Z

Period
1,436.05 min
Inclination
0.0218°
Eccentricity
0.0000973
Mean motion
1.00274938 rev/d
Perigee alt
35,781.6 km
Apogee alt
35,789.8 km
Semi-major
42,163.8 km
B*
0.0000e+0
RAAN
255.7401°
Arg perigee
263.3926°
Mean anomaly
329.0225°
Rev number
2,252

§ Raw data

KOREASAT 1161 45920U 20048A   26256.05530948 -.00000374  00000+0  00000+0 0  99922 45920   0.0218 255.7401 0000973 263.3926 329.0225  1.00274938 22525

JSON: /api/v1/satellites/45920 · /tle

For live sub-satellite position, see the globe view (requires WebGL).

§ Visibility from observer

Set your observer location to see the next 7 days of passes ≥ 10°. The values pass through the URL so the page stays shareable.

No JS? Fill the form by hand. The geolocation button needs JavaScript.